| time (UTC) | temp F | wind direction | speed knots | gust knots | rain 1hr in | rain 24hr in | rain mn in | humidity % | barometer mb |
| 20260902220903 | 97 | 348 | 0.0 | 0.0 | 0.00 | 0.00 | 0.00 | 52 | 1016.4 |
| 20260902220404 | 97 | 349 | 0.0 | 0.0 | 0.00 | 0.00 | 0.00 | 52 | 1016.4 |
| 20260902215903 | 97 | 349 | 0.0 | 0.0 | 0.00 | 0.00 | 0.00 | 51 | 1016.4 |
| 20260902215403 | 97 | 348 | 0.0 | 0.0 | 0.00 | 0.00 | 0.00 | 52 | 1016.4 |
| 20260902214904 | 98 | 348 | 0.0 | 0.0 | 0.00 | 0.00 | 0.00 | 50 | 1016.4 |
| 20260902214404 | 98 | 348 | 0.0 | 0.0 | 0.00 | 0.00 | 0.00 | 50 | 1016.4 |
| 20260902213904 | 99 | 348 | 0.0 | 0.0 | 0.00 | 0.00 | 0.00 | 48 | 1016.4 |
| 20260902213404 | 99 | 349 | 0.0 | 0.0 | 0.00 | 0.00 | 0.00 | 49 | 1016.4 |
| 20260902212904 | 99 | 348 | 0.0 | 0.0 | 0.00 | 0.00 | 0.00 | 49 | 1016.5 |
| 20260902212403 | 100 | 349 | 0.0 | 0.0 | 0.00 | 0.00 | 0.00 | 49 | 1016.5 |
| 20260902211403 | 100 | 348 | 0.0 | 1.7 | 0.00 | 0.00 | 0.00 | 47 | 1016.6 |
| 20260902210903 | 100 | 349 | 0.9 | 1.7 | 0.00 | 0.00 | 0.00 | 48 | 1016.6 |
| 20260902210405 | 100 | 348 | 0.9 | 1.7 | 0.00 | 0.00 | 0.00 | 47 | 1016.6 |
| 20260902205903 | 100 | 222 | 0.9 | 1.7 | 0.00 | 0.00 | 0.00 | 43 | 1016.6 |
| 20260902204904 | 99 | 19 | 0.0 | 1.7 | 0.00 | 0.00 | 0.00 | 45 | 1016.6 |
| 20260902204403 | 100 | 18 | 0.0 | 1.7 | 0.00 | 0.00 | 0.00 | 47 | 1016.7 |
| 20260902203903 | 100 | 117 | 0.0 | 0.9 | 0.00 | 0.00 | 0.00 | 46 | 1016.7 |
| 20260902203405 | 99 | 117 | 0.0 | 0.9 | 0.00 | 0.00 | 0.00 | 46 | 1017.1 |
| 20260902202403 | 100 | 111 | 0.9 | 1.7 | 0.00 | 0.00 | 0.00 | 41 | 1017.1 |
| 20260902201905 | 100 | 22 | 0.0 | 0.9 | 0.00 | 0.00 | 0.00 | 43 | 1017.1 |
| 20260902201403 | 100 | 23 | 0.0 | 0.9 | 0.00 | 0.00 | 0.00 | 44 | 1017.1 |
| 20260902200904 | 99 | 6 | 0.0 | 2.6 | 0.00 | 0.00 | 0.00 | 45 | 1017.1 |
| 20260902200404 | 100 | 46 | 0.9 | 2.6 | 0.00 | 0.00 | 0.00 | 41 | 1017.3 |
| 20260902195903 | 99 | 5 | 0.9 | 2.6 | 0.00 | 0.00 | 0.00 | 47 | 1017.3 |
| 20260902195404 | 99 | 35 | 0.9 | 2.6 | 0.00 | 0.00 | 0.00 | 45 | 1017.3 |
| 20260902194904 | 99 | 240 | 1.7 | 2.6 | 0.00 | 0.00 | 0.00 | 42 | 1017.3 |
| 20260902194404 | 99 | 119 | 1.7 | 2.6 | 0.00 | 0.00 | 0.00 | 41 | 1017.7 |
| 20260902193903 | 99 | 277 | 0.9 | 1.7 | 0.00 | 0.00 | 0.00 | 43 | 1017.7 |
| 20260902193405 | 98 | 355 | 0.9 | 0.9 | 0.00 | 0.00 | 0.00 | 43 | 1017.7 |
| 20260902192904 | 98 | 355 | 0.0 | 1.7 | 0.00 | 0.00 | 0.00 | 43 | 1017.7 |
| 20260902192403 | 97 | 77 | 0.9 | 1.7 | 0.00 | 0.00 | 0.00 | 43 | 1017.7 |
| 20260902191904 | 97 | 34 | 0.9 | 2.6 | 0.00 | 0.00 | 0.00 | 46 | 1017.7 |
| 20260902191404 | 96 | 74 | 1.7 | 2.6 | 0.00 | 0.00 | 0.00 | 47 | 1018.1 |
| 20260902190904 | 96 | 82 | 0.0 | 1.7 | 0.00 | 0.00 | 0.00 | 45 | 1018.1 |
| 20260902190405 | 96 | 64 | 1.7 | 2.6 | 0.00 | 0.00 | 0.00 | 45 | 1018.1 |
| 20260902185904 | 96 | 114 | 1.7 | 4.3 | 0.00 | 0.00 | 0.00 | 45 | 1018.1 |
| 20260902185403 | 97 | 123 | 1.7 | 5.2 | 0.00 | 0.00 | 0.00 | 45 | 1018.1 |
| 20260902184905 | 97 | 124 | 0.9 | 2.6 | 0.00 | 0.00 | 0.00 | 46 | 1018.1 |
| 20260902183904 | 96 | 34 | 0.9 | 2.6 | 0.00 | 0.00 | 0.00 | 47 | 1018.2 |
| 20260902183404 | 96 | 34 | 1.7 | 2.6 | 0.00 | 0.00 | 0.00 | 49 | 1018.2 |
| 20260902182903 | 97 | 107 | 1.7 | 5.2 | 0.00 | 0.00 | 0.00 | 48 | 1018.2 |
| 20260902182404 | 97 | 86 | 0.9 | 2.6 | 0.00 | 0.00 | 0.00 | 50 | 1018.3 |
| 20260902181903 | 96 | 198 | 1.7 | 4.3 | 0.00 | 0.00 | 0.00 | 48 | 1018.3 |
| 20260902180904 | 96 | 5 | 1.7 | 2.6 | 0.00 | 0.00 | 0.00 | 48 | 1018.4 |
| 20260902180403 | 95 | 29 | 0.9 | 2.6 | 0.00 | 0.00 | 0.00 | 52 | 1018.4 |
| 20260902175403 | 95 | 121 | 2.6 | 6.1 | 0.00 | 0.00 | 0.00 | 49 | 1018.6 |
| 20260902174904 | 95 | 161 | 1.7 | 4.3 | 0.00 | 0.00 | 0.00 | 49 | 1018.6 |
| 20260902173903 | 95 | 17 | 0.9 | 2.6 | 0.00 | 0.00 | 0.00 | 49 | 1018.8 |
| 20260902172904 | 94 | 91 | 0.9 | 2.6 | 0.00 | 0.00 | 0.00 | 51 | 1019.1 |
| 20260902172404 | 95 | 83 | 0.9 | 1.7 | 0.00 | 0.00 | 0.00 | 50 | 1019.1 |
| 20260902171904 | 95 | 279 | 0.9 | 2.6 | 0.00 | 0.00 | 0.00 | 53 | 1019.1 |
| 20260902171404 | 95 | 356 | 0.9 | 2.6 | 0.00 | 0.00 | 0.00 | 53 | 1019.3 |
| 20260902170904 | 94 | 58 | 0.9 | 1.7 | 0.00 | 0.00 | 0.00 | 54 | 1019.3 |
| 20260902170403 | 94 | 196 | 1.7 | 2.6 | 0.00 | 0.00 | 0.00 | 51 | 1019.3 |
| 20260902165905 | 94 | 345 | 1.7 | 2.6 | 0.00 | 0.00 | 0.00 | 53 | 1019.4 |
| 20260902165404 | 93 | 322 | 1.7 | 4.3 | 0.00 | 0.00 | 0.00 | 54 | 1019.6 |
| 20260902164904 | 93 | 31 | 2.6 | 4.3 | 0.00 | 0.00 | 0.00 | 55 | 1019.6 |
| 20260902163903 | 93 | 96 | 1.7 | 2.6 | 0.00 | 0.00 | 0.00 | 57 | 1019.6 |
| 20260902163404 | 94 | 158 | 1.7 | 2.6 | 0.00 | 0.00 | 0.00 | 55 | 1019.7 |
| 20260902162904 | 94 | 262 | 0.9 | 2.6 | 0.00 | 0.00 | 0.00 | 59 | 1019.7 |
| 20260902162404 | 93 | 0 | 0.0 | 1.7 | 0.00 | 0.00 | 0.00 | 58 | 1019.7 |
| 20260902160903 | 91 | 232 | 1.7 | 5.2 | 0.00 | 0.00 | 0.00 | 61 | 1019.8 |
| 20260902160404 | 90 | 333 | 2.6 | 5.2 | 0.00 | 0.00 | 0.00 | 62 | 1019.8 |
| 20260902154903 | 92 | 5 | 0.9 | 2.6 | 0.00 | 0.00 | 0.00 | 60 | 1020.1 |
| 20260902153404 | 90 | 31 | 0.9 | 4.3 | 0.00 | 0.00 | 0.00 | 61 | 1020.1 |
| 20260902152905 | 90 | 246 | 2.6 | 4.3 | 0.00 | 0.00 | 0.00 | 60 | 1020.1 |
| 20260902152404 | 90 | 130 | 1.7 | 4.3 | 0.00 | 0.00 | 0.00 | 65 | 1020.1 |
| 20260902151903 | 89 | 132 | 1.7 | 4.3 | 0.00 | 0.00 | 0.00 | 64 | 1020.1 |
| 20260902150904 | 89 | 17 | 0.9 | 2.6 | 0.00 | 0.00 | 0.00 | 67 | 1020.1 |
| 20260902145905 | 88 | 355 | 0.9 | 1.7 | 0.00 | 0.00 | 0.00 | 68 | 1020.1 |
| 20260902145403 | 88 | 70 | 0.9 | 2.6 | 0.00 | 0.00 | 0.00 | 67 | 1020.1 |
| 20260902144904 | 88 | 67 | 0.9 | 2.6 | 0.00 | 0.00 | 0.00 | 69 | 1020.1 |
| 20260902143905 | 86 | 138 | 0.9 | 2.6 | 0.00 | 0.00 | 0.00 | 69 | 1020.1 |
| 20260902143404 | 86 | 111 | 0.9 | 2.6 | 0.00 | 0.00 | 0.00 | 70 | 1020.1 |
| 20260902142904 | 86 | 72 | 0.0 | 0.9 | 0.00 | 0.00 | 0.00 | 70 | 1020.2 |
| 20260902142405 | 85 | 138 | 1.7 | 2.6 | 0.00 | 0.00 | 0.00 | 71 | 1020.2 |
| 20260902141904 | 85 | 113 | 0.9 | 1.7 | 0.00 | 0.00 | 0.00 | 71 | 1020.2 |
| 20260902141403 | 84 | 113 | 0.9 | 2.6 | 0.00 | 0.00 | 0.00 | 72 | 1020.2 |
| 20260902140905 | 84 | 113 | 0.0 | 0.9 | 0.00 | 0.00 | 0.00 | 72 | 1020.2 |
| 20260902140404 | 84 | 113 | 0.0 | 1.7 | 0.00 | 0.00 | 0.00 | 72 | 1020.2 |
| 20260902135405 | 83 | 113 | 0.0 | 0.9 | 0.00 | 0.00 | 0.00 | 74 | 1020.1 |
| 20260902134403 | 83 | 141 | 1.7 | 2.6 | 0.00 | 0.00 | 0.00 | 75 | 1020.2 |
| 20260902133904 | 82 | 67 | 0.9 | 1.7 | 0.00 | 0.00 | 0.00 | 77 | 1020.2 |
| 20260902133405 | 81 | 67 | 0.0 | 1.7 | 0.00 | 0.00 | 0.00 | 78 | 1020.2 |
| 20260902132903 | 80 | 67 | 0.0 | 0.9 | 0.00 | 0.00 | 0.00 | 80 | 1020.2 |
| 20260902132404 | 79 | 67 | 0.9 | 1.7 | 0.00 | 0.00 | 0.00 | 82 | 1020.2 |
| 20260902131904 | 78 | 67 | 0.9 | 1.7 | 0.00 | 0.00 | 0.00 | 83 | 1020.1 |
| 20260902131404 | 77 | 69 | 0.0 | 0.9 | 0.00 | 0.00 | 0.00 | 86 | 1020.1 |
| 20260902130904 | 76 | 69 | 0.9 | 1.7 | 0.00 | 0.00 | 0.00 | 88 | 1020.1 |
| 20260902130405 | 75 | 69 | 0.9 | 1.7 | 0.00 | 0.00 | 0.00 | 91 | 1020.1 |
| 20260902125404 | 73 | 355 | 0.0 | 0.9 | 0.00 | 0.00 | 0.00 | 93 | 1020.0 |
| 20260902124906 | 73 | 355 | 0.0 | 0.0 | 0.00 | 0.00 | 0.00 | 93 | 1020.0 |
| 20260902124404 | 72 | 355 | 0.0 | 0.0 | 0.00 | 0.00 | 0.00 | 94 | 1020.0 |
| 20260902123904 | 72 | 355 | 0.0 | 0.0 | 0.00 | 0.00 | 0.00 | 94 | 1020.0 |
| 20260902123405 | 72 | 355 | 0.0 | 0.0 | 0.00 | 0.00 | 0.00 | 94 | 1020.0 |
| 20260902122904 | 71 | 355 | 0.0 | 0.0 | 0.00 | 0.00 | 0.00 | 94 | 1019.9 |
| 20260902122404 | 71 | 355 | 0.0 | 0.0 | 0.00 | 0.00 | 0.00 | 94 | 1019.4 |
| 20260902121904 | 71 | 355 | 0.0 | 0.0 | 0.00 | 0.00 | 0.00 | 94 | 1019.4 |
| 20260902121404 | 71 | 355 | 0.0 | 0.0 | 0.00 | 0.00 | 0.00 | 94 | 1019.4 |
| 20260902120402 | 70 | 355 | 0.0 | 0.0 | 0.00 | 0.00 | 0.00 | 93 | 1019.4 |
| 20260902115904 | 70 | 355 | 0.0 | 0.0 | 0.00 | 0.00 | 0.00 | 93 | 1019.4 |
| 20260902115402 | 70 | 355 | 0.0 | 0.0 | 0.00 | 0.00 | 0.00 | 93 | 1019.4 |
| 20260902114903 | 70 | 355 | 0.0 | 0.0 | 0.00 | 0.00 | 0.00 | 93 | 1019.4 |
| 20260902113903 | 70 | 355 | 0.0 | 0.0 | 0.00 | 0.00 | 0.00 | 93 | 1019.3 |
| 20260902113402 | 70 | 355 | 0.0 | 0.0 | 0.00 | 0.00 | 0.00 | 93 | 1019.3 |
| 20260902112403 | 70 | 355 | 0.0 | 0.0 | 0.00 | 0.00 | 0.00 | 93 | 1019.2 |
| 20260902111902 | 70 | 355 | 0.0 | 0.0 | 0.00 | 0.00 | 0.00 | 93 | 1019.1 |
| 20260902111402 | 70 | 355 | 0.0 | 0.0 | 0.00 | 0.00 | 0.00 | 93 | 1018.9 |
| 20260902110904 | 70 | 355 | 0.0 | 0.0 | 0.00 | 0.00 | 0.00 | 92 | 1018.9 |
| 20260902110403 | 70 | 355 | 0.0 | 0.0 | 0.00 | 0.00 | 0.00 | 92 | 1018.9 |
| 20260902105902 | 70 | 355 | 0.0 | 0.0 | 0.00 | 0.00 | 0.00 | 92 | 1018.9 |
| 20260902105404 | 70 | 355 | 0.0 | 0.0 | 0.00 | 0.00 | 0.00 | 92 | 1018.9 |
| 20260902104903 | 70 | 355 | 0.0 | 0.0 | 0.00 | 0.00 | 0.00 | 92 | 1018.9 |
| 20260902104402 | 70 | 355 | 0.0 | 0.0 | 0.00 | 0.00 | 0.00 | 92 | 1018.6 |
| 20260902103904 | 70 | 355 | 0.0 | 0.0 | 0.00 | 0.00 | 0.00 | 92 | 1018.6 |
| 20260902103403 | 70 | 355 | 0.0 | 0.0 | 0.00 | 0.00 | 0.00 | 92 | 1018.6 |
| 20260902102902 | 70 | 355 | 0.0 | 0.0 | 0.00 | 0.00 | 0.00 | 92 | 1018.6 |
| 20260902102404 | 70 | 355 | 0.0 | 0.9 | 0.00 | 0.00 | 0.00 | 92 | 1018.6 |
| 20260902100904 | 70 | 355 | 0.0 | 0.9 | 0.00 | 0.00 | 0.00 | 92 | 1018.6 |
| 20260902100402 | 70 | 355 | 0.0 | 0.9 | 0.00 | 0.00 | 0.00 | 92 | 1018.5 |
| 20260902095404 | 71 | 355 | 0.0 | 0.0 | 0.00 | 0.00 | 0.00 | 92 | 1018.2 |
| 20260902094902 | 71 | 355 | 0.0 | 0.0 | 0.00 | 0.00 | 0.00 | 92 | 1018.2 |
| 20260902094402 | 71 | 355 | 0.0 | 0.0 | 0.00 | 0.00 | 0.00 | 92 | 1018.2 |
| 20260902093904 | 71 | 355 | 0.0 | 0.0 | 0.00 | 0.00 | 0.00 | 92 | 1018.2 |
| 20260902093403 | 71 | 355 | 0.0 | 0.0 | 0.00 | 0.00 | 0.00 | 92 | 1018.2 |
| 20260902092903 | 71 | 355 | 0.0 | 0.0 | 0.00 | 0.00 | 0.00 | 92 | 1018.2 |
| 20260902091902 | 71 | 355 | 0.0 | 0.0 | 0.00 | 0.00 | 0.00 | 92 | 1018.2 |
| 20260902091402 | 71 | 355 | 0.0 | 0.0 | 0.00 | 0.00 | 0.00 | 91 | 1018.2 |
| 20260902090904 | 71 | 355 | 0.0 | 0.0 | 0.00 | 0.00 | 0.00 | 92 | 1018.2 |
| 20260902090403 | 71 | 355 | 0.0 | 0.0 | 0.00 | 0.00 | 0.00 | 91 | 1018.2 |
| 20260902085903 | 71 | 355 | 0.0 | 0.0 | 0.00 | 0.00 | 0.00 | 91 | 1018.1 |
| 20260902085403 | 71 | 355 | 0.0 | 0.0 | 0.00 | 0.00 | 0.00 | 91 | 1018.1 |
| 20260902084902 | 71 | 355 | 0.0 | 0.0 | 0.00 | 0.00 | 0.00 | 91 | 1018.1 |
| 20260902084402 | 71 | 355 | 0.0 | 0.0 | 0.00 | 0.00 | 0.00 | 91 | 1018.0 |
| 20260902083903 | 71 | 355 | 0.0 | 0.0 | 0.00 | 0.00 | 0.00 | 91 | 1018.0 |
| 20260902083403 | 71 | 355 | 0.0 | 0.0 | 0.00 | 0.00 | 0.00 | 91 | 1017.9 |
| 20260902082902 | 71 | 355 | 0.0 | 0.0 | 0.00 | 0.00 | 0.00 | 91 | 1017.8 |
| 20260902082404 | 71 | 355 | 0.0 | 0.0 | 0.00 | 0.00 | 0.00 | 91 | 1017.8 |
| 20260902081403 | 71 | 355 | 0.0 | 0.0 | 0.00 | 0.00 | 0.00 | 91 | 1017.7 |
| 20260902080403 | 71 | 355 | 0.0 | 0.0 | 0.00 | 0.00 | 0.00 | 91 | 1017.7 |
| 20260902075902 | 71 | 355 | 0.0 | 0.0 | 0.00 | 0.00 | 0.00 | 91 | 1017.8 |
| 20260902075404 | 72 | 355 | 0.0 | 0.9 | 0.00 | 0.00 | 0.00 | 91 | 1017.8 |
| 20260902074903 | 72 | 355 | 0.0 | 0.0 | 0.00 | 0.00 | 0.00 | 91 | 1017.8 |
| 20260902074402 | 72 | 355 | 0.0 | 0.9 | 0.00 | 0.00 | 0.00 | 91 | 1017.8 |
| 20260902073904 | 72 | 355 | 0.0 | 0.9 | 0.00 | 0.00 | 0.00 | 90 | 1017.8 |
| 20260902072903 | 72 | 355 | 0.0 | 0.0 | 0.00 | 0.00 | 0.00 | 90 | 1017.8 |
| 20260902072404 | 72 | 355 | 0.0 | 0.9 | 0.00 | 0.00 | 0.00 | 90 | 1017.8 |
| 20260902071902 | 72 | 355 | 0.9 | 0.9 | 0.00 | 0.00 | 0.00 | 90 | 1017.8 |
| 20260902071402 | 72 | 355 | 0.0 | 0.0 | 0.00 | 0.00 | 0.00 | 90 | 1017.9 |
| 20260902070904 | 72 | 355 | 0.0 | 0.0 | 0.00 | 0.00 | 0.00 | 90 | 1017.9 |
| 20260902065903 | 72 | 355 | 0.0 | 0.9 | 0.00 | 0.00 | 0.00 | 90 | 1017.8 |
| 20260902065404 | 72 | 355 | 0.0 | 0.9 | 0.00 | 0.00 | 0.00 | 90 | 1017.8 |
| 20260902064903 | 72 | 355 | 0.0 | 0.0 | 0.00 | 0.00 | 0.00 | 90 | 1017.8 |
| 20260902063904 | 72 | 355 | 0.0 | 0.0 | 0.00 | 0.00 | 0.00 | 89 | 1017.9 |
| 20260902063403 | 72 | 355 | 0.0 | 0.0 | 0.00 | 0.00 | 0.00 | 89 | 1017.9 |
| 20260902062902 | 73 | 355 | 0.0 | 0.0 | 0.00 | 0.00 | 0.00 | 89 | 1018.0 |
| 20260902062405 | 73 | 355 | 0.0 | 0.0 | 0.00 | 0.00 | 0.00 | 89 | 1018.0 |
| 20260902061902 | 73 | 355 | 0.0 | 0.0 | 0.00 | 0.00 | 0.00 | 90 | 1018.0 |
| 20260902061402 | 73 | 355 | 0.0 | 0.0 | 0.00 | 0.00 | 0.00 | 89 | 1018.0 |
| 20260902060904 | 73 | 355 | 0.0 | 0.9 | 0.00 | 0.00 | 0.00 | 89 | 1018.0 |
| 20260902060402 | 73 | 355 | 0.9 | 0.9 | 0.00 | 0.00 | 0.00 | 89 | 1018.0 |
| 20260902055903 | 73 | 355 | 0.0 | 0.0 | 0.00 | 0.00 | 0.00 | 89 | 1018.1 |
| 20260902055405 | 73 | 355 | 0.0 | 0.0 | 0.00 | 0.00 | 0.00 | 89 | 1018.1 |
| 20260902054902 | 73 | 355 | 0.0 | 0.0 | 0.00 | 0.00 | 0.00 | 89 | 1018.1 |
| 20260902054402 | 73 | 355 | 0.0 | 0.0 | 0.00 | 0.00 | 0.00 | 89 | 1018.1 |
| 20260902053904 | 73 | 355 | 0.0 | 0.0 | 0.00 | 0.00 | 0.00 | 88 | 1018.1 |
| 20260902053402 | 73 | 355 | 0.0 | 0.0 | 0.00 | 0.00 | 0.00 | 88 | 1018.1 |
| 20260902052903 | 73 | 355 | 0.0 | 0.0 | 0.00 | 0.00 | 0.00 | 88 | 1018.0 |
| 20260902051904 | 73 | 355 | 0.0 | 0.0 | 0.00 | 0.00 | 0.00 | 88 | 1018.0 |
| 20260902051402 | 73 | 355 | 0.0 | 0.0 | 0.00 | 0.00 | 0.00 | 88 | 1018.0 |
| 20260902050903 | 73 | 355 | 0.0 | 0.0 | 0.00 | 0.00 | 0.00 | 88 | 1018.0 |
| 20260902050403 | 73 | 355 | 0.0 | 0.0 | 0.00 | 0.00 | 0.00 | 88 | 1018.0 |
| 20260902045903 | 73 | 355 | 0.0 | 0.0 | 0.00 | 0.00 | 0.00 | 87 | 1018.0 |
| 20260902045403 | 73 | 355 | 0.0 | 0.0 | 0.00 | 0.00 | 0.00 | 87 | 1018.0 |
| 20260902044904 | 74 | 355 | 0.0 | 0.0 | 0.00 | 0.00 | 0.00 | 87 | 1018.0 |
| 20260902044402 | 74 | 355 | 0.0 | 0.9 | 0.00 | 0.00 | 0.00 | 87 | 1018.1 |
| 20260902043902 | 74 | 355 | 0.0 | 0.9 | 0.00 | 0.00 | 0.00 | 87 | 1018.1 |
| 20260902043404 | 74 | 355 | 0.0 | 0.0 | 0.00 | 0.00 | 0.00 | 87 | 1018.1 |
| 20260902042903 | 74 | 355 | 0.0 | 0.0 | 0.00 | 0.00 | 0.00 | 87 | 1018.2 |
| 20260902042403 | 74 | 355 | 0.0 | 0.0 | 0.00 | 0.00 | 0.00 | 86 | 1018.2 |
| 20260902041903 | 74 | 355 | 0.0 | 0.0 | 0.00 | 0.00 | 0.00 | 86 | 1018.2 |
| 20260902041402 | 74 | 355 | 0.0 | 0.0 | 0.00 | 0.00 | 0.00 | 86 | 1018.3 |
| 20260902040902 | 74 | 355 | 0.0 | 0.0 | 0.00 | 0.00 | 0.00 | 86 | 1018.3 |
| 20260902040404 | 74 | 355 | 0.0 | 0.0 | 0.00 | 0.00 | 0.00 | 86 | 1018.3 |
| 20260902035903 | 74 | 355 | 0.0 | 0.0 | 0.00 | 0.00 | 0.00 | 85 | 1018.3 |
| 20260902035403 | 74 | 355 | 0.0 | 0.0 | 0.00 | 0.00 | 0.00 | 85 | 1018.3 |
| 20260902034904 | 74 | 355 | 0.0 | 0.0 | 0.00 | 0.00 | 0.00 | 85 | 1018.3 |
| 20260902034402 | 74 | 355 | 0.0 | 0.0 | 0.00 | 0.00 | 0.00 | 85 | 1018.2 |
| 20260902033902 | 75 | 355 | 0.0 | 0.0 | 0.00 | 0.00 | 0.00 | 85 | 1018.2 |
| 20260902033404 | 75 | 355 | 0.0 | 0.0 | 0.00 | 0.00 | 0.00 | 84 | 1018.2 |
| 20260902032902 | 75 | 355 | 0.0 | 0.0 | 0.00 | 0.00 | 0.00 | 84 | 1018.2 |
| 20260902032403 | 75 | 355 | 0.0 | 0.0 | 0.00 | 0.00 | 0.00 | 84 | 1018.2 |
| 20260902031904 | 75 | 355 | 0.0 | 0.0 | 0.00 | 0.00 | 0.00 | 84 | 1018.2 |
| 20260902030903 | 75 | 355 | 0.0 | 0.0 | 0.00 | 0.00 | 0.00 | 83 | 1018.2 |
| 20260902030404 | 75 | 355 | 0.0 | 0.0 | 0.00 | 0.00 | 0.00 | 83 | 1018.2 |
| 20260902025903 | 75 | 355 | 0.0 | 0.0 | 0.00 | 0.00 | 0.00 | 83 | 1018.2 |
| 20260902024905 | 75 | 355 | 0.0 | 0.9 | 0.00 | 0.00 | 0.00 | 83 | 1018.2 |
| 20260902024402 | 76 | 355 | 0.9 | 0.9 | 0.00 | 0.00 | 0.00 | 82 | 1018.2 |
| 20260902023903 | 76 | 355 | 0.0 | 0.0 | 0.00 | 0.00 | 0.00 | 82 | 1018.2 |
| 20260902023404 | 76 | 355 | 0.0 | 0.0 | 0.00 | 0.00 | 0.00 | 82 | 1018.0 |
| 20260902022903 | 76 | 355 | 0.0 | 0.9 | 0.00 | 0.00 | 0.00 | 82 | 1018.0 |
| 20260902022402 | 76 | 355 | 0.0 | 0.9 | 0.00 | 0.00 | 0.00 | 81 | 1018.0 |
| 20260902021904 | 76 | 355 | 0.0 | 0.9 | 0.00 | 0.00 | 0.00 | 81 | 1018.0 |
| 20260902020903 | 76 | 355 | 0.9 | 0.9 | 0.00 | 0.00 | 0.00 | 81 | 1018.0 |
| 20260902020404 | 77 | 355 | 0.0 | 0.9 | 0.00 | 0.00 | 0.00 | 80 | 1018.0 |
| 20260902015903 | 77 | 355 | 0.0 | 0.0 | 0.00 | 0.00 | 0.00 | 80 | 1018.1 |
| 20260902015403 | 77 | 355 | 0.0 | 0.0 | 0.00 | 0.00 | 0.00 | 79 | 1018.1 |
| 20260902014904 | 77 | 355 | 0.0 | 0.0 | 0.00 | 0.00 | 0.00 | 79 | 1018.1 |
| 20260902014403 | 77 | 355 | 0.0 | 0.9 | 0.00 | 0.00 | 0.00 | 78 | 1018.0 |
| 20260902013903 | 78 | 355 | 0.0 | 0.0 | 0.00 | 0.00 | 0.00 | 77 | 1018.0 |
| 20260902013404 | 78 | 355 | 0.0 | 0.0 | 0.00 | 0.00 | 0.00 | 76 | 1018.0 |
| 20260902012403 | 78 | 355 | 0.0 | 0.0 | 0.00 | 0.00 | 0.00 | 75 | 1017.7 |
| 20260902011904 | 79 | 355 | 0.0 | 0.0 | 0.00 | 0.00 | 0.00 | 74 | 1017.7 |
| 20260902011402 | 79 | 355 | 0.0 | 0.0 | 0.00 | 0.00 | 0.00 | 73 | 1017.4 |
| 20260902010903 | 79 | 355 | 0.0 | 0.0 | 0.00 | 0.00 | 0.00 | 73 | 1017.4 |
| 20260902010404 | 79 | 355 | 0.0 | 0.0 | 0.00 | 0.00 | 0.00 | 73 | 1017.4 |
| 20260902005903 | 79 | 355 | 0.0 | 0.9 | 0.00 | 0.00 | 0.00 | 73 | 1017.4 |
| 20260902004905 | 80 | 355 | 0.0 | 0.0 | 0.00 | 0.00 | 0.00 | 71 | 1017.4 |
| 20260902004403 | 80 | 355 | 0.0 | 0.9 | 0.00 | 0.00 | 0.00 | 70 | 1017.3 |
| 20260902003903 | 80 | 355 | 0.9 | 0.9 | 0.00 | 0.00 | 0.00 | 70 | 1017.3 |
| 20260902003403 | 81 | 355 | 0.0 | 0.0 | 0.00 | 0.00 | 0.00 | 69 | 1017.3 |
| 20260902002903 | 81 | 355 | 0.0 | 0.0 | 0.00 | 0.00 | 0.00 | 69 | 1017.3 |
| 20260902002403 | 81 | 355 | 0.0 | 0.9 | 0.00 | 0.00 | 0.00 | 69 | 1017.3 |
| 20260902001905 | 82 | 355 | 0.0 | 0.9 | 0.00 | 0.00 | 0.00 | 68 | 1017.3 |
| 20260902001403 | 82 | 355 | 0.0 | 0.0 | 0.00 | 0.00 | 0.00 | 67 | 1017.2 |
| 20260902000406 | 83 | 355 | 0.9 | 0.9 | 0.00 | 0.00 | 0.00 | 66 | 1017.2 |
| 20260901235904 | 83 | 355 | 0.0 | 0.9 | 0.00 | 0.00 | 0.00 | 66 | 1017.4 |
| 20260901235403 | 84 | 355 | 0.0 | 0.0 | 0.00 | 0.00 | 0.00 | 64 | 1017.4 |
| 20260901234905 | 84 | 355 | 0.0 | 0.0 | 0.00 | 0.00 | 0.00 | 64 | 1017.4 |
| 20260901232903 | 86 | 355 | 0.0 | 0.0 | 0.00 | 0.00 | 0.00 | 61 | 1017.6 |
| 20260901232403 | 86 | 355 | 0.0 | 0.0 | 0.00 | 0.00 | 0.00 | 61 | 1017.6 |
| 20260901231403 | 87 | 355 | 0.0 | 0.0 | 0.00 | 0.00 | 0.00 | 61 | 1017.5 |
| 20260901230903 | 87 | 355 | 0.0 | 0.0 | 0.00 | 0.00 | 0.00 | 61 | 1017.5 |
| 20260901225903 | 88 | 355 | 0.0 | 0.0 | 0.00 | 0.00 | 0.00 | 60 | 1017.5 |
| 20260901225403 | 88 | 355 | 0.0 | 0.0 | 0.00 | 0.00 | 0.00 | 61 | 1017.5 |
| 20260901224904 | 88 | 355 | 0.0 | 0.9 | 0.00 | 0.00 | 0.00 | 60 | 1017.5 |
| 20260901224403 | 89 | 355 | 0.0 | 0.9 | 0.00 | 0.00 | 0.00 | 59 | 1017.4 |
| 20260901223404 | 90 | 355 | 0.0 | 0.9 | 0.00 | 0.00 | 0.00 | 57 | 1017.4 |
| 20260901221903 | 94 | 355 | 0.0 | 0.0 | 0.00 | 0.00 | 0.00 | 52 | 1017.4 |
| 20260901221404 | 95 | 355 | 0.0 | 0.0 | 0.00 | 0.00 | 0.00 | 53 | 1017.4 |